Weather reports worldwide

Advertisment
Farnborough, United Kingdom (3768): temperature & dewpoint: 13.02.2019 13:00:00 - 19.02.2019 13:00:00 (GMT)Farnborough, United Kingdom (3768): temperature -100cm: 13.02.2019 13:00:00 - 19.02.2019 13:00:00 (GMT)Farnborough, United Kingdom (3768): wind speed: 13.02.2019 13:00:00 - 19.02.2019 13:00:00 (GMT)Farnborough, United Kingdom (3768): wind direction: 13.02.2019 13:00:00 - 19.02.2019 13:00:00 (GMT)Farnborough, United Kingdom (3768): reduced air pressure: 13.02.2019 13:00:00 - 19.02.2019 13:00:00 (GMT)Farnborough, United Kingdom (3768): visibility: 13.02.2019 13:00:00 - 19.02.2019 13:00:00 (GMT)Farnborough, United Kingdom (3768): precipitation: 13.02.2019 13:00:00 - 19.02.2019 13:00:00 (GMT)
Date & Time tt [°C] td [°C] tt -100cm [°C] ff [km/h] ff [kn] dd ppp [hPa] vv [km] rr [mm]
19.02.2019 13:00:00 10,1 3,5 - 28 15 SW 1019,6 10 0,0
19.02.2019 12:00:00 9,6 4,8 - 21 11 W 1020,0 10 0,0
19.02.2019 11:00:00 8,8 4,8 - 21 11 WSW 1020,1 10 0,0
19.02.2019 10:00:00 7,9 5,1 - 18 10 SW 1019,9 10 0,0
19.02.2019 09:00:00 6,2 4,6 6,9 15 8 SW 1019,7 10 0,0
19.02.2019 08:00:00 3,6 2,9 - 11 6 SW 1019,3 10 0,2
19.02.2019 07:00:00 3,8 3,0 - 13 7 WSW 1018,6 10 0,0
19.02.2019 06:00:00 3,1 2,2 - 9 5 WSW 1018,3 - 0,0
19.02.2019 05:00:00 3,8 2,6 - 11 6 WSW 1018,1 - 0,0
19.02.2019 04:00:00 4,3 2,9 - 11 6 WSW 1018,0 - 0,0
19.02.2019 03:00:00 4,3 2,9 - 15 8 WSW 1017,7 - 0,0
19.02.2019 02:00:00 4,5 2,8 - 16 9 WSW 1017,6 - 0,0
19.02.2019 01:00:00 4,8 2,8 - 13 7 WSW 1017,3 - 0,0
19.02.2019 00:00:00 5,4 3,3 - 16 9 WSW 1016,9 - 0,0
18.02.2019 23:00:00 4,4 3,5 - 11 6 WSW 1017,0 - 0,0
18.02.2019 22:00:00 2,8 2,7 - 2 1 S 1017,0 - 0,0
18.02.2019 21:00:00 3,5 3,2 - 0 0 N 1016,6 - 0,0
18.02.2019 20:00:00 3,3 2,8 - 11 6 SW 1016,2 10 0,0
18.02.2019 19:00:00 4,5 3,7 - 11 6 SW 1015,9 10 0,0
18.02.2019 18:00:00 6,3 5,3 - 13 7 SSW 1015,0 10 0,4
18.02.2019 17:00:00 6,9 5,8 - 15 8 SW 1014,9 10 0,4
18.02.2019 16:00:00 8,3 6,5 - 26 14 SW 1014,6 10 0,2
18.02.2019 15:00:00 8,8 7,0 - 16 9 SSW 1014,4 10 0,0
18.02.2019 14:00:00 8,5 7,3 - 18 10 S 1014,3 10 0,0
18.02.2019 13:00:00 8,4 7,4 - 15 8 SSW 1015,1 6 0,8
18.02.2019 12:00:00 8,3 7,2 - 15 8 SW 1015,6 10 1,0
18.02.2019 11:00:00 8,5 7,3 - 18 10 SSW 1015,7 8 0,8
18.02.2019 10:00:00 8,8 7,5 - 16 9 SSW 1015,5 7 0,2
18.02.2019 09:00:00 9,0 8,0 6,7 15 8 S 1015,5 8 0,0
18.02.2019 08:00:00 8,2 7,5 - 11 6 S 1015,3 10 0,0
18.02.2019 07:00:00 8,1 7,3 - 11 6 S 1015,0 10 0,0
18.02.2019 06:00:00 7,0 6,2 - 8 4 S 1015,0 - 0,0
18.02.2019 05:00:00 7,6 6,3 - 13 7 SW 1015,3 - 0,0
18.02.2019 04:00:00 9,0 7,7 - 15 8 SW 1015,4 - 0,0
18.02.2019 03:00:00 8,5 7,7 - 13 7 SSW 1015,6 - 0,0
18.02.2019 02:00:00 7,1 6,2 - 9 5 SSW 1016,1 - 0,0
18.02.2019 01:00:00 8,0 6,1 - 13 7 SW 1016,3 - 0,0
18.02.2019 00:00:00 9,0 7,1 - 15 8 SSW 1016,4 - 0,0
17.02.2019 23:00:00 8,8 7,3 - 8 4 SSW 1016,1 - 0,0
17.02.2019 22:00:00 9,3 8,0 - 9 5 S 1015,8 - 0,0
17.02.2019 21:00:00 7,3 6,7 - 5 3 SSW 1015,9 - 0,0
17.02.2019 20:00:00 8,5 7,1 - 8 4 S 1015,7 10 0,0
17.02.2019 19:00:00 9,4 7,4 - 15 8 SSW 1015,8 10 0,0
17.02.2019 18:00:00 10,4 7,8 - 16 9 SSW 1015,3 10 0,0
17.02.2019 17:00:00 10,9 7,8 - 18 10 SSW 1014,8 10 0,0
17.02.2019 16:00:00 11,0 8,2 - 22 12 SW 1014,6 10 0,0
17.02.2019 15:00:00 11,7 8,7 - 26 14 SSW 1014,5 10 0,0
17.02.2019 14:00:00 13,0 9,1 - 24 13 SSW 1014,4 10 0,0
17.02.2019 13:00:00 14,0 8,0 - 18 10 SSW 1014,4 10 0,0
17.02.2019 12:00:00 12,6 7,1 - 28 15 SSW 1014,7 10 -
17.02.2019 11:00:00 11,9 6,5 - 24 13 S 1014,5 10 -
17.02.2019 10:00:00 10,6 6,7 - 13 7 S 1014,4 10 0,0
17.02.2019 09:00:00 7,5 5,8 6,7 16 9 SSE 1014,8 10 0,0
17.02.2019 08:00:00 6,1 5,3 - 18 10 SE 1015,1 5 0,0
17.02.2019 07:00:00 6,3 5,5 - 15 8 SSE 1015,4 - 0,0
17.02.2019 06:00:00 5,8 5,4 - 13 7 SE 1015,8 - 0,0
17.02.2019 05:00:00 4,7 4,4 - 2 1 SSE 1016,4 - 0,0
17.02.2019 04:00:00 5,3 5,0 - 8 4 SE 1016,9 - 0,0
17.02.2019 03:00:00 6,4 6,1 - 8 4 ESE 1017,8 - 0,0
17.02.2019 02:00:00 7,4 7,2 - 13 7 ESE 1018,8 - 0,0
17.02.2019 01:00:00 8,2 8,0 - 11 6 SE 1019,7 - 0,0
17.02.2019 00:00:00 8,4 7,9 - 8 4 ESE 1020,4 - 0,0
16.02.2019 23:00:00 9,2 8,5 - 9 5 SSE 1020,7 - 0,0
16.02.2019 22:00:00 9,4 8,7 - 4 2 SE 1021,0 - 0,0
16.02.2019 21:00:00 9,6 8,9 - 9 5 S 1021,6 - 0,0
16.02.2019 20:00:00 9,8 9,0 - 15 8 S 1021,9 7 0,0
16.02.2019 19:00:00 10,0 9,3 - 13 7 S 1022,0 7 0,0
16.02.2019 18:00:00 10,3 9,5 - 11 6 SSE 1021,9 7 0,0
16.02.2019 17:00:00 10,6 9,9 - 13 7 S 1021,7 7 0,0
16.02.2019 16:00:00 11,0 10,2 - 18 10 S 1022,0 9 0,0
16.02.2019 15:00:00 11,5 10,3 - 13 7 S 1022,6 10 0,0
16.02.2019 14:00:00 11,5 10,4 - 11 6 S 1022,9 7 0,0
16.02.2019 13:00:00 10,9 10,5 - 11 6 S 1023,3 5 0,0
16.02.2019 12:00:00 9,7 9,7 - 9 5 SSE 1023,8 1,5 0,0
16.02.2019 11:00:00 9,0 9,0 - 11 6 SSE 1024,0 0,4 0,0
16.02.2019 10:00:00 8,9 8,7 - 11 6 S 1023,7 0,5 0,0
16.02.2019 09:00:00 8,7 8,5 6,7 11 6 SSE 1023,5 1,5 0,0
16.02.2019 08:00:00 8,5 8,2 - 9 5 S 1023,3 2,0 0,0
16.02.2019 07:00:00 8,5 8,4 - 5 3 S 1022,8 - 0,0
16.02.2019 06:00:00 6,6 6,4 - 2 1 E 1022,7 - 0,0
16.02.2019 05:00:00 4,9 4,0 - 5 3 W 1022,6 - 0,0
16.02.2019 04:00:00 5,1 4,3 - 9 5 SE 1022,3 - 0,0
16.02.2019 03:00:00 3,9 3,7 - 11 6 SSE 1022,7 - 0,0
16.02.2019 02:00:00 4,7 3,8 - 8 4 SE 1023,2 - 0,0
16.02.2019 01:00:00 4,6 3,9 - 11 6 S 1023,5 - 0,0
16.02.2019 00:00:00 2,7 2,0 - 8 4 SSE 1023,7 - 0,0
15.02.2019 23:00:00 4,5 3,7 - 8 4 SSE 1023,9 - 0,0
15.02.2019 22:00:00 4,3 3,1 - 11 6 S 1024,4 8 0,0
15.02.2019 21:00:00 5,3 3,7 - 11 6 S 1024,5 9 0,0
15.02.2019 20:00:00 5,8 3,0 - 8 4 S 1024,6 10 0,0
15.02.2019 19:00:00 7,2 3,1 - 11 6 S 1024,9 10 0,0
15.02.2019 18:00:00 8,5 3,3 - 11 6 SSE 1025,0 10 0,0
15.02.2019 17:00:00 11,7 2,5 - 13 7 S 1024,8 10 0,0
15.02.2019 16:00:00 13,2 4,0 - 15 8 S 1024,8 10 0,0
15.02.2019 15:00:00 13,2 6,5 - 9 5 SE 1025,4 10 0,0
15.02.2019 14:00:00 12,8 6,5 - 11 6 S 1026,1 10 0,0
15.02.2019 13:00:00 11,3 7,3 - 11 6 SSE 1026,8 10 0,0
15.02.2019 12:00:00 8,5 7,6 - 8 4 S 1027,5 8 0,0
15.02.2019 11:00:00 5,2 5,2 - 11 6 SSE 1028,2 0,4 0,0
15.02.2019 10:00:00 4,1 4,1 - 11 6 SSE 1028,3 0,4 0,0
15.02.2019 09:00:00 3,0 2,9 6,7 8 4 SSE 1028,3 0,2 0,2
15.02.2019 08:00:00 1,6 1,5 - 4 2 - 1028,5 0,2 0,0
15.02.2019 07:00:00 1,3 1,2 - 8 4 SSE 1028,3 0,3 0,0
15.02.2019 06:00:00 1,2 1,1 - 2 1 S 1028,4 - 0,0
15.02.2019 05:00:00 1,6 1,5 - 5 3 S 1028,7 - 0,0
15.02.2019 04:00:00 0,4 0,2 - 5 3 S 1028,6 - 0,0
15.02.2019 03:00:00 -0,1 -0,7 - 9 5 SE 1029,1 - 0,0
15.02.2019 02:00:00 1,5 1,0 - 11 6 SE 1029,5 - 0,0
15.02.2019 01:00:00 1,7 1,0 - 8 4 SE 1029,9 - 0,0
15.02.2019 00:00:00 2,8 2,4 - 5 3 SSE 1029,9 - 0,0
14.02.2019 23:00:00 2,6 2,1 - 9 5 SE 1030,1 - 0,0
14.02.2019 22:00:00 3,6 2,6 - 11 6 SE 1030,2 - 0,0
14.02.2019 21:00:00 4,2 2,7 - 11 6 SSE 1030,1 9 0,0
14.02.2019 20:00:00 5,6 3,2 - 15 8 SSE 1030,1 10 0,0
14.02.2019 19:00:00 5,0 1,9 - 9 5 SE 1030,4 10 0,0
14.02.2019 18:00:00 6,5 1,8 - 9 5 SE 1030,3 10 0,0
14.02.2019 17:00:00 9,7 1,9 - 13 7 SE 1030,3 10 0,0
14.02.2019 16:00:00 11,8 3,2 - 15 8 SSE 1030,3 10 0,0
14.02.2019 15:00:00 11,7 4,1 - 11 6 SSE 1030,8 10 0,0
14.02.2019 14:00:00 11,4 5,0 - 15 8 SE 1031,2 10 0,0
14.02.2019 13:00:00 11,0 5,1 - 13 7 SE 1031,9 10 0,0
14.02.2019 12:00:00 9,8 5,8 - 11 6 S 1032,5 10 0,0
14.02.2019 11:00:00 7,5 5,7 - 9 5 S 1033,0 10 0,0
14.02.2019 10:00:00 4,2 4,2 - 2 1 - 1033,0 3,0 0,2
14.02.2019 09:00:00 1,5 1,4 6,7 2 1 - 1033,0 0,1 0,0
14.02.2019 08:00:00 -0,3 -0,4 - 2 1 - 1032,9 0,3 0,0
14.02.2019 07:00:00 -1,4 -1,5 - 2 1 S 1032,8 0,2 0,0
14.02.2019 06:00:00 -2,0 -2,3 - 4 2 S 1032,9 - 0,0
14.02.2019 05:00:00 -1,4 -1,7 - 2 1 ENE 1033,0 - 0,0
14.02.2019 04:00:00 -0,5 -0,7 - 4 2 S 1032,6 - 0,0
14.02.2019 03:00:00 -0,1 -0,3 - 5 3 S 1032,8 - 0,0
14.02.2019 02:00:00 -0,2 -0,7 - 4 2 E 1032,9 - 0,0
14.02.2019 01:00:00 2,2 2,0 - 4 2 SE 1032,9 - 0,0
14.02.2019 00:00:00 3,4 2,9 - 4 2 S 1033,0 - 0,0
13.02.2019 23:00:00 3,5 2,9 - 5 3 ESE 1032,9 - 0,0
13.02.2019 22:00:00 3,8 3,2 - 9 5 SSE 1032,8 7 0,0
13.02.2019 21:00:00 4,1 3,4 - 8 4 SSE 1032,9 9 0,0
13.02.2019 20:00:00 4,6 3,3 - 9 5 SSE 1032,8 10 0,0
13.02.2019 19:00:00 6,0 4,2 - 9 5 SSE 1032,7 10 0,0
13.02.2019 18:00:00 6,9 4,0 - 11 6 SSE 1032,3 10 0,0
13.02.2019 17:00:00 8,7 4,7 - 13 7 S 1032,4 10 0,0
13.02.2019 16:00:00 10,0 4,9 - 11 6 SSW 1032,7 10 0,0
13.02.2019 15:00:00 10,9 5,6 - 18 10 SSW 1032,4 10 0,0
13.02.2019 14:00:00 10,8 5,7 - 22 12 SSW 1032,9 10 0,0
13.02.2019 13:00:00 11,0 6,2 - 24 13 SSW 1033,1 10 0,0

tt = temperature
td = dewpoint
tt -100cm = temperature -100cm
ff = wind speed
dd = wind direction
ppp = reduced air pressure
vv = visibility
rr = precipitation

Next stations